OE3MAA Weather Reports


time (UTC)temp
C
wind
direction
speed
KPH
gust
KPH
rain 1hr
cm
rain 24hr
cm
rain mn
cm
humidity
%
barometer
mb
20260507035015 12 270 14.5 29.0 0.00 0.00 0.00 71 1009.2
20260507034035 12 270 12.9 22.5 0.00 0.00 0.00 70 1009.1
20260507033017 13 270 14.5 29.0 0.00 0.00 0.00 69 1009.2
20260507032016 13 270 16.1 30.6 0.00 0.00 0.00 69 1009.0
20260507031016 13 270 12.9 24.1 0.00 0.00 0.00 69 1009.0
20260507030016 13 270 11.3 24.1 0.00 0.00 0.00 69 1009.0
20260507025015 13 270 16.1 25.7 0.00 0.00 0.00 69 1008.9
20260507024036 13 270 11.3 20.9 0.00 0.00 0.00 69 1008.6
20260507023015 13 270 14.5 29.0 0.00 0.00 0.00 70 1008.5
20260507022015 13 270 11.3 22.5 0.00 0.00 0.00 70 1008.5
20260507021016 13 270 14.5 24.1 0.00 0.00 0.00 70 1008.5
20260507020016 13 270 14.5 25.7 0.00 0.00 0.00 71 1008.5
20260507015056 13 270 14.5 24.1 0.00 0.00 0.00 72 1008.5
20260507014015 13 270 12.9 22.5 0.00 0.00 0.00 71 1008.4
20260507013015 13 270 14.5 25.7 0.00 0.00 0.00 71 1008.4
20260507012015 14 270 14.5 27.4 0.00 0.00 0.00 71 1008.2
20260507010017 14 270 11.3 27.4 0.00 0.00 0.00 70 1008.1
20260507005016 14 270 16.1 35.4 0.00 0.00 0.00 70 1007.8
20260507004015 14 270 14.5 32.2 0.00 0.00 0.00 70 1007.7
20260507003017 15 270 12.9 25.7 0.00 0.00 0.00 70 1007.7
20260507002016 15 270 16.1 27.4 0.00 0.00 0.00 70 1007.6
20260507001015 15 270 11.3 27.4 0.00 0.00 0.00 70 1007.4
20260507000037 15 270 12.9 20.9 0.00 0.00 0.00 71 1007.5
20260506235035 15 270 12.9 27.4 0.00 0.00 0.00 71 1007.3
20260506233016 15 270 11.3 24.1 0.00 0.00 0.00 71 1007.3
20260506232015 15 225 11.3 20.9 0.00 0.00 0.00 71 1007.1
20260506231016 15 225 11.3 25.7 0.00 0.00 0.00 71 1006.9
20260506230036 15 270 9.7 22.5 0.00 0.00 0.00 69 1006.7
20260506225036 16 270 11.3 25.7 0.00 0.00 0.00 67 1006.7
20260506224015 16 270 12.9 30.6 0.00 0.00 0.00 66 1006.4
20260506223016 16 248 9.7 16.1 0.00 0.00 0.00 65 1006.1
20260506222016 16 225 14.5 30.6 0.00 0.00 0.00 64 1005.9
20260506221016 16 225 11.3 20.9 0.00 0.00 0.00 64 1005.7
20260506220016 15 248 4.8 16.1 0.00 0.00 0.00 69 1005.3
20260506215017 15 135 1.6 6.4 0.00 0.00 0.00 67 1005.0
20260506214015 16 135 1.6 6.4 0.00 0.00 0.00 65 1004.9
20260506213015 16 135 1.6 11.3 0.00 0.00 0.00 64 1004.8
20260506212015 17 180 3.2 8.0 0.00 0.00 0.00 62 1004.6
20260506211016 17 135 3.2 8.0 0.00 0.00 0.00 61 1004.6
20260506210036 17 135 8.0 12.9 0.00 0.00 0.00 60 1004.4
20260506205016 18 135 11.3 19.3 0.00 0.00 0.00 59 1004.2
20260506203056 18 158 12.9 24.1 0.00 0.00 0.00 58 1004.1
20260506202015 18 158 14.5 27.4 0.00 0.00 0.00 58 1004.0
20260506201037 18 158 12.9 22.5 0.00 0.00 0.00 57 1004.0
20260506200056 18 158 14.5 25.7 0.00 0.00 0.00 57 1003.8
20260506195015 18 158 12.9 29.0 0.00 0.00 0.00 57 1003.5
20260506194035 18 158 16.1 29.0 0.00 0.00 0.00 56 1003.5
20260506193015 19 135 14.5 25.7 0.00 0.00 0.00 55 1003.5
20260506192015 19 135 14.5 25.7 0.00 0.00 0.00 55 1003.3
20260506191015 19 158 14.5 22.5 0.00 0.00 0.00 55 1003.3
20260506190037 20 158 12.9 20.9 0.00 0.00 0.00 54 1003.2
20260506185016 20 158 14.5 25.7 0.00 0.00 0.00 54 1003.0
20260506184016 20 158 14.5 29.0 0.00 0.00 0.00 53 1002.8
20260506183016 20 135 17.7 30.6 0.00 0.00 0.00 52 1002.6
20260506182015 20 158 16.1 27.4 0.00 0.00 0.00 51 1002.4
20260506181016 20 158 16.1 29.0 0.00 0.00 0.00 51 1002.2
20260506180015 21 158 16.1 25.7 0.00 0.00 0.00 51 1002.1
20260506175016 21 135 16.1 32.2 0.00 0.00 0.00 50 1002.1
20260506174016 21 158 14.5 24.1 0.00 0.00 0.00 50 1002.1
20260506173036 21 158 16.1 27.4 0.00 0.00 0.00 49 1002.2
20260506172015 22 135 16.1 30.6 0.00 0.00 0.00 49 1002.3
20260506171015 22 135 17.7 32.2 0.00 0.00 0.00 47 1002.2
20260506170015 22 135 14.5 22.5 0.00 0.00 0.00 48 1002.2
20260506165015 22 135 17.7 35.4 0.00 0.00 0.00 48 1002.2
20260506164016 22 135 19.3 29.0 0.00 0.00 0.00 48 1002.3
20260506163016 22 135 16.1 29.0 0.00 0.00 0.00 48 1002.4
20260506162016 22 158 14.5 24.1 0.00 0.00 0.00 48 1002.5
20260506161016 22 158 17.7 37.0 0.00 0.00 0.00 47 1002.6
20260506160016 23 158 22.5 40.2 0.00 0.00 0.00 45 1002.5
20260506155035 23 135 17.7 35.4 0.00 0.00 0.00 45 1002.6
20260506154015 23 135 19.3 38.6 0.00 0.00 0.00 44 1002.7
20260506153016 23 135 20.9 37.0 0.00 0.00 0.00 43 1002.8
20260506152015 23 135 19.3 40.2 0.00 0.00 0.00 43 1002.8
20260506151036 24 158 20.9 35.4 0.00 0.00 0.00 42 1002.9
20260506150015 25 135 22.5 41.8 0.00 0.00 0.00 41 1002.9
20260506145017 25 158 19.3 30.6 0.00 0.00 0.00 41 1002.9
20260506144015 25 135 19.3 37.0 0.00 0.00 0.00 41 1002.9
20260506143036 25 135 19.3 35.4 0.00 0.00 0.00 40 1002.9
20260506142036 25 135 20.9 40.2 0.00 0.00 0.00 40 1003.1
20260506141015 25 135 20.9 43.5 0.00 0.00 0.00 40 1003.3
20260506140036 25 135 19.3 37.0 0.00 0.00 0.00 39 1003.4
20260506135016 25 135 22.5 43.5 0.00 0.00 0.00 40 1003.6
20260506134015 25 135 19.3 33.8 0.00 0.00 0.00 41 1003.8
20260506133016 25 135 20.9 35.4 0.00 0.00 0.00 41 1003.8
20260506132037 24 135 20.9 35.4 0.00 0.00 0.00 43 1004.0
20260506131015 23 135 20.9 40.2 0.00 0.00 0.00 44 1004.1
20260506130016 22 135 16.1 30.6 0.00 0.00 0.00 46 1004.2
20260506125016 22 113 19.3 33.8 0.00 0.00 0.00 45 1004.3
20260506124016 22 135 19.3 33.8 0.00 0.00 0.00 47 1004.6
20260506123016 22 135 14.5 25.7 0.00 0.00 0.00 45 1004.7
20260506122017 22 135 14.5 30.6 0.00 0.00 0.00 47 1005.0
20260506121035 22 113 24.1 37.0 0.00 0.00 0.00 46 1005.1
20260506120016 23 135 20.9 40.2 0.00 0.00 0.00 45 1005.1
20260506115018 23 135 19.3 38.6 0.00 0.00 0.00 45 1005.1
20260506114036 24 135 19.3 38.6 0.00 0.00 0.00 44 1005.3
20260506113016 23 135 20.9 43.5 0.00 0.00 0.00 45 1005.4
20260506112036 23 135 22.5 37.0 0.00 0.00 0.00 47 1005.5
20260506111016 23 135 22.5 37.0 0.00 0.00 0.00 46 1005.7
20260506110016 23 135 19.3 32.2 0.00 0.00 0.00 47 1005.8
20260506105058 23 135 22.5 33.8 0.00 0.00 0.00 46 1005.9
20260506104016 23 135 19.3 33.8 0.00 0.00 0.00 44 1006.0
20260506103036 23 135 20.9 29.0 0.00 0.00 0.00 49 1006.0
20260506102016 23 135 19.3 30.6 0.00 0.00 0.00 48 1006.1
20260506101016 23 135 14.5 24.1 0.00 0.00 0.00 48 1006.2
20260506100036 22 113 14.5 27.4 0.00 0.00 0.00 49 1006.4
20260506095016 22 135 16.1 25.7 0.00 0.00 0.00 50 1006.5
20260506094016 22 135 14.5 22.5 0.00 0.00 0.00 52 1006.6
20260506093016 22 135 14.5 20.9 0.00 0.00 0.00 49 1006.8
20260506092016 22 113 11.3 22.5 0.00 0.00 0.00 51 1006.9
20260506091016 22 135 11.3 19.3 0.00 0.00 0.00 50 1006.8
20260506090016 22 113 11.3 24.1 0.00 0.00 0.00 49 1006.8
20260506084016 22 135 8.0 14.5 0.00 0.00 0.00 51 1007.0
20260506083016 21 0 4.8 17.7 0.00 0.00 0.00 53 1007.1
20260506082016 21 135 4.8 9.7 0.00 0.00 0.00 51 1007.2
20260506081036 21 293 3.2 9.7 0.00 0.00 0.00 53 1007.2
20260506073016 19 270 4.8 9.7 0.00 0.00 0.00 60 1007.3
20260506072016 18 315 4.8 9.7 0.00 0.00 0.00 62 1007.5
20260506071016 18 270 8.0 12.9 0.00 0.00 0.00 61 1007.5
20260506062056 16 270 6.4 11.3 0.00 0.00 0.00 68 1007.8
20260506061036 16 293 6.4 12.9 0.00 0.00 0.00 70 1007.7
20260506051016 15 270 9.7 19.3 0.00 0.00 0.00 73 1007.8
20260506045016 14 293 8.0 12.9 0.00 0.00 0.00 76 1007.6
20260506044016 14 293 8.0 12.9 0.00 0.00 0.00 76 1007.6
20260506042016 14 293 8.0 16.1 0.00 0.00 0.00 77 1007.4
20260506041016 13 293 8.0 14.5 0.00 0.00 0.00 78 1007.3
20260506040016 13 293 8.0 11.3 0.00 0.00 0.00 78 1007.1